FW3145 Weather Reports


Display with metric or nautical units.
time (UTC)temp
F
wind
direction
speed
MPH
gust
MPH
rain 1hr
in
rain 24hr
in
rain mn
in
humidity
%
barometer
mb
20260905031539 64 5 0.0 0.0 0.00 0.00 0.00 79 1016.3
20260905030038 64 5 0.0 0.0 0.00 0.00 0.00 78 1016.2
20260905024536 64 5 0.0 0.0 0.00 0.00 0.00 78 1016.3
20260905023034 64 5 0.0 0.0 0.00 0.00 0.00 77 1016.2
20260905021531 65 5 0.0 0.0 0.00 0.00 0.00 77 1016.1
20260905020028 65 5 0.0 0.0 0.00 0.00 0.00 76 1016.3
20260905014526 66 5 0.0 0.0 0.00 0.00 0.00 75 1016.2
20260905013024 66 5 0.0 0.0 0.00 0.00 0.00 74 1016.2
20260905011523 66 5 0.0 0.0 0.00 0.00 0.00 74 1016.2
20260905010022 66 355 0.0 0.0 0.00 0.00 0.00 74 1016.3
20260905004520 66 349 0.0 0.0 0.00 0.00 0.00 73 1016.3
20260905003018 67 349 0.0 0.0 0.00 0.00 0.00 72 1016.3
20260905001516 67 349 0.0 0.0 0.00 0.00 0.00 70 1016.3
20260905000013 68 349 0.0 0.0 0.00 0.00 0.00 69 1016.4
20260904234511 68 349 0.0 0.0 0.00 0.00 0.00 68 1016.4
20260904233010 68 355 0.0 0.0 0.00 0.00 0.00 68 1016.5
20260904231515 68 355 0.0 0.0 0.00 0.00 0.00 68 1016.5
20260904230008 68 355 0.0 0.0 0.00 0.00 0.00 68 1016.6
20260904224505 69 355 0.0 0.0 0.00 0.00 0.00 68 1016.6
20260904223004 69 355 0.0 0.0 0.00 0.00 0.00 68 1016.6
20260904221502 69 355 0.0 0.0 0.00 0.00 0.00 67 1016.5
20260904220104 70 355 0.0 0.0 0.00 0.00 0.00 66 1016.5
20260904214607 70 355 0.0 0.0 0.00 0.00 0.00 65 1016.5
20260904213058 71 355 0.0 0.0 0.00 0.00 0.00 63 1016.5
20260904211604 72 355 0.0 0.0 0.00 0.00 0.00 61 1016.5
20260904210056 72 9 0.0 0.0 0.00 0.00 0.00 58 1016.5
20260904204555 73 333 0.0 0.0 0.00 0.00 0.00 58 1016.6
20260904203054 74 19 0.0 0.0 0.00 0.00 0.00 56 1016.7
20260904201601 75 98 0.0 0.0 0.00 0.00 0.00 52 1016.6
20260904200057 76 98 0.0 0.0 0.00 0.00 0.00 49 1016.6
20260904194554 78 345 0.0 0.0 0.00 0.00 0.00 47 1016.7
20260904193050 79 10 0.0 0.0 0.00 0.00 0.00 42 1016.6
20260904191548 78 38 0.0 0.0 0.00 0.00 0.00 42 1016.4
20260904190047 78 12 0.0 0.0 0.00 0.00 0.00 45 1016.4
20260904184600 80 31 0.0 0.0 0.00 0.00 0.00 42 1016.3
20260904183046 81 23 0.0 0.0 0.00 0.00 0.00 39 1016.0
20260904181546 79 14 0.0 0.0 0.00 0.00 0.00 42 1015.6
20260904180059 79 334 0.0 0.0 0.00 0.00 0.00 46 1015.4
20260904174546 82 348 0.0 0.0 0.00 0.00 0.00 46 1015.3
20260904173049 84 355 0.0 0.0 0.00 0.00 0.00 42 1015.1
20260904171549 87 328 0.0 0.0 0.00 0.00 0.00 42 1015.1
20260904170043 90 327 0.0 0.0 0.00 0.00 0.00 46 1014.9
20260904164542 91 327 0.0 0.0 0.00 0.00 0.00 42 1014.8
20260904163043 91 275 0.0 0.0 0.00 0.00 0.00 40 1014.7
20260904161542 91 286 0.0 0.0 0.00 0.00 0.00 36 1014.8
20260904160042 92 279 0.0 0.0 0.00 0.00 0.00 34 1014.8
20260904154540 95 232 0.0 0.0 0.00 0.00 0.00 30 1014.7
20260904153048 96 236 0.0 0.0 0.00 0.00 0.00 28 1014.7
20260904151539 96 242 0.0 0.0 0.00 0.00 0.00 29 1014.7
20260904150044 96 236 0.0 0.0 0.00 0.00 0.00 27 1014.7
20260904144538 96 252 0.0 0.0 0.00 0.00 0.00 29 1014.7
20260904143035 95 168 0.0 0.0 0.00 0.00 0.00 28 1014.8
20260904141544 96 181 0.0 0.0 0.00 0.00 0.00 29 1014.9
20260904140034 96 198 0.0 0.0 0.00 0.00 0.00 27 1015.0
20260904134530 95 227 0.0 0.0 0.00 0.00 0.00 28 1015.0
20260904133030 94 169 0.0 0.0 0.00 0.00 0.00 29 1015.2
20260904131527 94 175 0.0 0.0 0.00 0.00 0.00 29 1015.2
20260904130026 94 176 0.0 0.0 0.00 0.00 0.00 31 1015.3
20260904124524 94 161 0.0 0.0 0.00 0.00 0.00 31 1015.5
20260904123022 93 194 0.0 0.0 0.00 0.00 0.00 31 1015.5
20260904121521 92 195 0.0 0.0 0.00 0.00 0.00 31 1015.8
20260904120019 93 180 0.0 0.0 0.00 0.00 0.00 31 1016.0
20260904114533 92 238 0.0 0.0 0.00 0.00 0.00 30 1016.1
20260904113016 92 156 0.0 0.0 0.00 0.00 0.00 32 1016.2
20260904111513 91 209 0.0 0.0 0.00 0.00 0.00 33 1016.3
20260904110022 90 132 0.0 0.0 0.00 0.00 0.00 32 1016.4
20260904104508 90 203 0.0 0.0 0.00 0.00 0.00 34 1016.6
20260904103005 89 166 0.0 0.0 0.00 0.00 0.00 37 1016.7
20260904101503 88 202 0.0 0.0 0.00 0.00 0.00 38 1016.8
20260904100100 88 198 0.0 0.0 0.00 0.00 0.00 35 1016.8
20260904094557 87 227 0.0 0.0 0.00 0.00 0.00 39 1017.0
20260904093054 87 227 0.0 0.0 0.00 0.00 0.00 39 1017.0
20260904091549 86 265 0.0 0.0 0.00 0.00 0.00 41 1017.1
20260904090045 84 48 0.0 0.0 0.00 0.00 0.00 43 1017.2
20260904084541 84 180 0.0 0.0 0.00 0.00 0.00 47 1017.3
20260904083051 83 219 0.0 0.0 0.00 0.00 0.00 48 1017.2
20260904081532 82 173 0.0 0.0 0.00 0.00 0.00 49 1017.1
20260904080029 81 223 0.0 0.0 0.00 0.00 0.00 49 1017.0
20260904074526 80 183 0.0 0.0 0.00 0.00 0.00 52 1016.9
20260904073022 79 161 0.0 0.0 0.00 0.00 0.00 55 1016.8
20260904071529 79 159 0.0 0.0 0.00 0.00 0.00 58 1016.7
20260904070013 77 161 0.0 0.0 0.00 0.00 0.00 58 1016.6
20260904064507 75 161 0.0 0.0 0.00 0.00 0.00 62 1016.6
20260904063112 74 79 0.0 0.0 0.00 0.00 0.00 64 1016.5
20260904061602 72 323 0.0 0.0 0.00 0.00 0.00 68 1016.3
20260904060110 70 323 0.0 0.0 0.00 0.00 0.00 71 1016.2
20260904054549 67 323 0.0 0.0 0.00 0.00 0.00 75 1016.2
20260904053045 64 324 0.0 0.0 0.00 0.00 0.00 77 1016.0
20260904051545 63 323 0.0 0.0 0.00 0.00 0.00 77 1016.0
20260904050038 62 343 0.0 0.0 0.00 0.00 0.00 77 1015.8
20260904044545 62 11 0.0 0.0 0.00 0.00 0.00 75 1015.6
20260904043037 62 9 0.0 0.0 0.00 0.00 0.00 74 1015.6
20260904041535 62 10 0.0 0.0 0.00 0.00 0.00 75 1015.5
20260904040033 63 13 0.0 0.0 0.00 0.00 0.00 75 1015.4
20260904034536 63 13 0.0 0.0 0.00 0.00 0.00 75 1015.4
20260904033035 63 69 0.0 0.0 0.00 0.00 0.00 74 1015.5